Sturgeon Bay, WI

7:32 PM CDT on October 22, 2019 (GMT -0500)
Door County Cherryland

Weather History for KSUE - August, 2019

Change the Weather History Date:

Thursday, August 8, 2019

  Actual Average Record
Temperature  
Mean Temperature 68 °F -  
Max Temperature 73 °F 79 °F 95 °F (2001)
Min Temperature 64 °F 59 °F 42 °F (1926)
Cooling Degree Days 4    
Growing Degree Days 18 (Base 50)    
Moisture  
Dew Point 58 °F    
Average Humidity 73    
Maximum Humidity 94    
Minimum Humidity 46    
Precipitation  
Precipitation 0.00 in - - ()
Sea Level Pressure  
Sea Level Pressure 29.79 in    
Wind  
Wind Speed 8 mph (WNW)    
Max Wind Speed 13 mph    
Max Gust Speed 18 mph    
Visibility 10 miles    
Events      
Averages and records for this station are not official NWS values.
T = Trace of Precipitation, MM = Missing Value Source: NWS Daily Summary

Daily Weather History Graph

Daily Weather History Graph

Search for Another Location

Airport or City:

Astronomy

Aug. 08, 2019 Rise Set
Actual Time 5:43 AM CDT 8:06 PM CDT
Civil Twilight 5:10 AM CDT 8:39 PM CDT
Nautical Twilight 4:29 AM CDT 9:19 PM CDT
Astronomical Twilight 3:43 AM CDT 10:05 PM CDT
Moon 2:42 PM CDT (8/8) 12:06 AM CDT (8/8)
Length of Visible Light 15h 28m
Length of Day
14h 23m
First Quarter, 60% of the Moon is Illuminated
Aug 8
First Quarter
Aug 15
Full
Aug 23
Last Quarter
Aug 30
New
Sep 5
First Quarter

Hourly Weather History & Observations

Time (CDT) Temp. Dew Point Humidity Pressure Visibility Wind Dir Wind Speed Gust Speed Precip Events Conditions
12:56 AM 66.9 °F 64.9 °F 93% 29.71 in 10.0 mi WNW 8.1 mph - N/A   Clear
1:11 AM 66.2 °F 64.4 °F 94% 29.73 in 10.0 mi WNW 8.1 mph - N/A   Partly Cloudy
1:56 AM 66.9 °F 64.9 °F 93% 29.72 in 10.0 mi NW 8.1 mph - N/A   Partly Cloudy
2:28 AM 66.2 °F 64.4 °F 94% 29.73 in 10.0 mi NNW 6.9 mph - N/A   Mostly Cloudy
2:52 AM 66.2 °F 64.4 °F 94% 29.74 in 10.0 mi NW 6.9 mph - N/A   Mostly Cloudy
2:56 AM 66.0 °F 64.0 °F 93% 29.72 in 10.0 mi NW 4.6 mph - N/A   Mostly Cloudy
3:56 AM 64.9 °F 63.0 °F 93% 29.74 in 10.0 mi WNW 9.2 mph - N/A   Clear
4:56 AM 64.0 °F 62.1 °F 93% 29.75 in 10.0 mi WNW 8.1 mph - N/A   Clear
5:56 AM 64.0 °F 61.0 °F 90% 29.75 in 10.0 mi NW 6.9 mph - N/A   Clear
6:56 AM 64.0 °F 59.0 °F 84% 29.77 in 10.0 mi NW 8.1 mph - N/A   Clear
7:56 AM 64.0 °F 59.0 °F 84% 29.79 in 10.0 mi NW 9.2 mph - N/A   Clear
8:56 AM 64.9 °F 57.9 °F 78% 29.79 in 10.0 mi NW 9.2 mph - N/A   Clear
9:56 AM 66.9 °F 57.9 °F 73% 29.80 in 10.0 mi NW 12.7 mph - N/A   Clear
10:56 AM 69.1 °F 57.9 °F 68% 29.82 in 10.0 mi NW 8.1 mph - N/A   Clear
11:56 AM 70.0 °F 55.0 °F 59% 29.82 in 10.0 mi WNW 11.5 mph - N/A   Clear
12:56 PM 71.1 °F 55.0 °F 57% 29.82 in 10.0 mi WNW 11.5 mph - N/A   Clear
1:56 PM 72.0 °F 53.1 °F 51% 29.83 in 10.0 mi West 11.5 mph 18.4 mph N/A   Scattered Clouds
2:56 PM 73.0 °F 53.1 °F 49% 29.83 in 10.0 mi WNW 10.4 mph - N/A   Clear
3:56 PM 73.9 °F 52.0 °F 46% 29.83 in 10.0 mi WNW 11.5 mph - N/A   Partly Cloudy
4:56 PM 73.9 °F 53.1 °F 48% 29.81 in 10.0 mi West 11.5 mph - N/A   Partly Cloudy
5:56 PM 73.9 °F 53.1 °F 48% 29.81 in 10.0 mi WNW 10.4 mph - N/A   Clear
6:56 PM 72.0 °F 55.0 °F 55% 29.82 in 10.0 mi West 5.8 mph - N/A   Clear
7:56 PM 70.0 °F 55.0 °F 59% 29.82 in 10.0 mi West 4.6 mph - N/A   Clear
8:56 PM 66.9 °F 55.9 °F 68% 29.83 in 10.0 mi WSW 4.6 mph - N/A   Clear
9:56 PM 66.0 °F 55.0 °F 68% 29.83 in 10.0 mi West 5.8 mph - N/A   Clear
10:56 PM 66.0 °F 55.0 °F 68% 29.84 in 10.0 mi West 4.6 mph - N/A   Clear
11:56 PM 64.9 °F 55.9 °F 73% 29.86 in 10.0 mi WNW 8.1 mph - N/A   Partly Cloudy